www.pogodaiklimat.ru

Погода и климат >> Архив погоды >> Хорватия >> Било-Гора


ПОГОДА на Било-Горе

  • Прогноз погоды на Било-Горе
  • Монитор погоды на Било-Горе

АРХИВ ПОГОДЫ на Било-Горе

Время (UTC), дата Ветер
(напр.,м/с)
 
Видим.   Явления Облачность Т
(С)
Тd
(С)
f
(%)
Тe
(С)
Тes
(С)
Комфортность P
(гПа)
Po
(гПа)
Тmin
(С)
Tmax
(С)
R
(мм)
R24
(мм)
S
(см)
10 16.05 С 1 30 км в посл. час морось 10/8 600 м
[Frnb As trans]
+8.0 +7.6 97 +7 +9 1015.6 983.9
11 16.05 СВ 2 30 км в посл. час морось 10/8 600 м
[Sc Ac As]
+8.7 +7.3 91 +7 +8 1015.3 983.7
12 16.05 ЮВ 1 30 км {морось, туман} 10/8 600 м
[Sc Ac As]
+9.2 +7.7 90 +9 +10 1015.3 983.8 0.1
13 16.05 В 1 30 км 10/8 600 м
[Cu Sc As trans]
+9.9 +7.4 84 +9 +11 1014.9 983.5
14 16.05 ЮВ 1 30 км 9/9 600 м
[Cu Sc]
+10.3 +7.0 80 +10 +11 1014.5 983.1
15 16.05 В 1 20 км 9/9 600 м
[Cu Sc]
+10.9 +7.9 82 +11 +11 1014.2 982.9
16 16.05 В 1 20 км 9/9 600 м
[Cu Sc]
+11.1 +7.1 76 +11 +11 1014.1 982.8
17 16.05 В 3 20 км 8/8 600 м
[Sc]
+10.5 +8.1 85 +8 +9 1014.1 982.8
18 16.05 ЮВ 2 20 км 8/8 600 м
[Sc]
+9.9 +8.2 89 +8 +8 1014.4 983.0 +11.9 0.1
19 16.05 ЮВ 1 20 км 8/8 600 м
[Sc]
+9.3 +7.4 88 +9 +9 1014.5 983.0
20 16.05 ЮВ 3 20 км 6/6 600 м
[Sc]
+9.0 +7.1 88 +6 +6 1014.8 983.3
21 16.05 штиль 0 20 км 3/3 600 м
[Sc]
+8.4 +7.2 92 +7 +7 1014.9 983.3
00 17.05 ЮЗ 1 20 км 6/6 600 м
[Sc]
+7.4 +7.2 99 +6 +6 1014.1 982.4
03 17.05 ЮЗ 1 15 км 9/9 600 м
[Sc]
+8.4 +6.6 88 +8 +8 1013.3 981.8
04 17.05 штиль 0 10 км 6/6 600 м
[Sc]
+8.6 +6.6 87 +8 +8 1013.4 981.9
05 17.05 Ю 1 10 км 8/8 600 м
[Sc]
+8.7 +6.7 87 +8 +8 1013.8 982.3
06 17.05 ЮВ 1 10 км 10/5 600 м
[Sc As trans]
+9.1 +7.9 92 +8 +9 1014.1 982.6 +7.2
07 17.05 ЮВ 1 10 км 10/4 600 м
[Sc As trans]
+9.7 +8.4 92 +9 +11 1014.3 982.9
08 17.05 В 1 15 км 10/6 600 м
[Cu Sc As trans]
+11.2 +7.8 80 +11 +13 1014.2 982.9
09 17.05 В 2 15 км 10/6 600 м
[Cu Sc As trans]
+11.9 +8.4 79 +11 +13 1013.6 982.4
10 17.05 В 3 20 км 10/8 600 м
[Cu Sc As trans]
+13.0 +9.0 77 +12 +13 1013.3 982.3
11 17.05 ЮВ 2 20 км 10/6 600 м
[Cu Sc As trans]
+13.8 +8.3 69 +13 +16 1013.2 982.3
12 17.05 В 3 25 км 8/8 600 м
[Cu Sc]
+15.2 +9.3 68 +15 +17 1012.9 982.1
13 17.05 В 3 25 км 8/8 600 м
[Cu Sc]
+15.3 +8.6 64 +15 +17 1012.4 981.6
14 17.05 ЮВ 1 25 км 5/4 600 м
[Cu Sc Ac trans]
+16.2 +9.3 64 +17 +24 1012.2 981.5
15 17.05 В 3 25 км 4/4 600 м
[Cu hum]
+16.1 +9.2 64 +16 +19 1011.9 981.2
16 17.05 В 5 25 км 4/4 600 м
[Cu hum]
+15.5 +9.7 68 +14 +15 1011.5 980.8
17 17.05 В 4 20 км 3/0
[Ac cuf]
+15.6 +10.0 69 +15 +15 1011.4 980.7
18 17.05 В 4 15 км 3/0
[Ac cuf Ci sp]
+13.9 +10.9 82 +12 +12 1011.6 980.7 +16.5
19 17.05 В 5 10 км 3/0
[Ac trans]
+12.2 +10.0 86 +10 +10 1011.9 980.8
20 17.05 В 5 10 км ясно +11.0 +10.1 94 +8 +8 1012.1 980.9
21 17.05 ЮВ 5 10 км ясно +10.5 +9.9 96 +7 +7 1012.2 980.9
00 18.05 ЮВ 4 1000 м дымка ясно +9.7 +9.3 97 +7 +7 1011.8 980.5
03 18.05 В 3 <100 м туман ?/? +7.8 +7.8 100 +5 +5 1010.6 979.1
04 18.05 ЮВ 3 <100 м туман ясно +8.3 +8.3 100 +5 +6 1010.6 979.1
05 18.05 В 3 100 м туман ?/? +8.9 +8.9 100 +6 +6 1010.8 979.4
06 18.05 В 3 100 м туман ?/? +9.8 +9.8 100 +7 +7 1011.2 979.9 +7.5
07 18.05 В 3 100 м туман ?/? +11.0 +11.0 100 +9 +9 1011.2 980.0
08 18.05 В 3 1000 м дымка 10/10 600 м
[St]
+12.2 +11.8 97 +10 +10 1011.1 980.1
09 18.05 В 3 2000 м дымка 9/9 600 м
[St]
+14.0 +12.6 91 +13 +14 1010.9 980.1
10 18.05 В 4 4000 м дымка 9/9 600 м
[St]
+16.1 +12.6 80 +15 +17 1010.7 980.1
11 18.05 В 5 10 км 5/4 600 м
[Cu hum Ci sp]
+18.8 +12.7 68 +19 +25 1010.2 979.9
12 18.05 В 5 10 км 4/4 600 м
[Cu hum]
+20.1 +13.5 66 +22 +27 комфорт 1009.5 979.4
13 18.05 В 5 15 км 3/3 600 м
[Cu hum]
+20.8 +13.9 65 +23 +29 комфорт 1008.6 978.6
14 18.05 В 4 15 км 3/3 600 м
[Cu hum]
+20.9 +13.9 64 +24 +29 комфорт 1007.9 977.9
15 18.05 В 3 15 км 3/3 600 м
[Cu hum]
+21.0 +13.4 62 +24 +28 комфорт 1007.6 977.6
16 18.05 В 4 20 км 5/3 600 м
[Cu Sc Ci sp]
+19.7 +13.9 69 +22 +23 комфорт 1007.3 977.2
17 18.05 ЮВ 3 20 км 8/5 600 м
[Cu Sc Ci sp]
+18.3 +13.6 74 +19 +19 1007.7 977.4
18 18.05 ЮЗ 3 20 км 8/8 600 м
[Sc]
+15.6 +13.9 90 +15 +15 1008.0 977.5 +21.0
19 18.05 СВ 1 20 км 8/8 600 м
[Sc]
+16.0 +14.0 88 +17 +17 1008.0 977.5
20 18.05 ЮВ 2 20 км слаб. дождь 10/4 600 м
[Frnb As op]
+15.1 +14.3 95 +15 +15 1008.9 978.3
21 18.05 ЮЗ 4 20 км слаб. дождь 10/3 600 м
[Frnb As op]
+13.5 +13.3 99 +12 +12 1009.5 978.7
00 19.05 ЮЗ 3 20 км в посл. час дождь 10/4 600 м
[Sc As op]
+12.6 +12.6 100 +11 +11 1008.1 977.2 6
03 19.05 ЮЗ 2 100 м туман ?/? +11.9 +11.9 100 +11 +11 1008.2 977.2
04 19.05 ЮЗ 2 100 м туман ?/? +11.8 +11.8 100 +11 +11 1008.2 977.2
05 19.05 ЮЗ 1 100 м туман ?/? +12.2 +12.2 100 +12 +12 1008.1 977.2
06 19.05 ЮЗ 1 100 м дымка {дождь} 10/10 300 м
[St]
+14.3 +14.1 99 +15 +15 1007.0 976.4 +11.8 6
07 19.05 З 1 2000 м 8/8 300 м
[St]
+14.0 +13.3 96 +14 +16 1007.0 976.3
08 19.05 ЮЗ 1 20 км {дождь} 8/8 300 м
[St]
+15.2 +13.5 90 +16 +19 1007.2 976.6
09 19.05 В 1 20 км 8/5 600 м
[St Ci]
+16.8 +12.6 76 +18 +26 1006.4 976.0
10 19.05 ЮВ 2 30 км 9/8 600 м
[Cu Sc Ci sp]
+18.5 +13.4 72 +20 +23 1006.1 975.9
11 19.05 СВ 2 30 км 9/8 600 м
[Cu Sc Ci sp]
+19.1 +13.2 69 +21 +24 комфорт 1005.4 975.3
12 19.05 ЮВ 4 50 км 9/6 600 м
[Cu Sc Cs]
+19.0 +12.9 68 +20 +24 1005.4 975.3
13 19.05 ЮВ 3 50 км 10/8 600 м
[Cu Sc As trans]
+19.6 +13.8 69 +22 +23 комфорт 1005.5 975.4
14 19.05 В 6 50 км 10/8 600 м
[Cu Sc As trans]
+18.4 +13.2 72 +18 +19 1005.2 975.0
15 19.05 В 2 30 км 10/6 600 м
[Cu Sc As trans]
+18.3 +13.8 75 +19 +20 1004.9 974.7
16 19.05 З 2 30 км 9/6 600 м
[Cu Sc Ac As]
+18.4 +14.0 76 +19 +20 1004.4 974.3
17 19.05 СВ 1 35 км 8/4 600 м
[Sc Ac As]
+17.6 +14.0 79 +19 +19 1004.1 973.9
18 19.05 В 3 25 км 8/3 600 м
[Sc Ac trans Ci sp]
+17.0 +12.9 77 +17 +17 1003.7 973.4 +19.6
19 19.05 В 1 25 км 8/4 600 м
[Sc Ac lent Ci sp]
+15.9 +12.2 79 +17 +17 1003.4 973.0
20 19.05 СЗ 2 25 км 6/4 600 м
[Sc Ci sp]
+15.5 +13.3 87 +15 +15 1003.7 973.3
21 19.05 СЗ 2 20 км 8/5 600 м
[Sc Ci sp]
+14.6 +13.9 96 +14 +14 1004.0 973.5
00 20.05 ЮЗ 3 25 км 10/5 600 м
[Sc Ac As]
+12.3 +11.9 97 +11 +11 1004.3 973.5
03 20.05 Ю 2 25 км 6/5 600 м
[Sc Ci sp]
+11.7 +11.5 99 +10 +10 1004.1 973.2
04 20.05 ЮЗ 1 20 км 3/1 600 м
[Sc Ci sp]
+11.3 +11.3 100 +11 +11 1002.6 971.7
05 20.05 Ю 2 20 км 4/1 600 м
[Sc Ac trans Ci fib]
+12.2 +12.0 99 +11 +12 1004.3 973.5
06 20.05 Ю 2 20 км 4/1 600 м
[Sc Ac trans Ci fib]
+13.8 +12.1 89 +13 +17 1004.3 973.7 +11.3
07 20.05 Ю 2 30 км 6/1 600 м
[Cu Sc Ac trans Ci sp]
+15.4 +12.7 84 +15 +20 1004.6 974.1
08 20.05 ЮЗ 3 50 км 8/4 600 м
[Cu med, cong As trans Ci sp]
+15.6 +11.9 79 +15 +19 1005.0 974.5
09 20.05 Ю 2 50 км 8/4 600 м
[Cu med, cong Ac As Ci sp]
+17.1 +12.1 72 +17 +24 1005.1 974.8
10 20.05 ЮЗ 4 60 км 6/3 600 м
[Cu med, cong Ac cast Ci sp]
+19.2 +10.9 59 +20 +27 1005.2 975.1
11 20.05 ЮЗ 3 40 км 6/4 600 м
[Cu med, cong Ci sp]
+19.6 +12.7 64 +21 +30 комфорт 1005.4 975.3
12 20.05 ЮЗ 3 20 км слаб. дождь {гроза} 8/5 600 м
[Cb calv As op Ci sp]
+18.6 +12.1 66 +19 +24 1005.7 975.5 0.0
13 20.05 Ю 2 20 км гроза без осадков 6/4 600 м
[Cb calv Ci sp]
+19.3 +12.2 63 +21 +29 комфорт 1005.6 975.5
14 20.05 З 3 50 км 5/3 600 м
[Cu med, cong Ci ing]
+19.1 +12.0 63 +20 +26 1005.5 975.4
15 20.05 З 4 50 км гроза без осадков 6/3 600 м
[Cb calv Ac cuf Ci sp]
+19.6 +12.2 62 +21 +24 комфорт 1005.4 975.3
16 20.05 ЮЗ 2 40 км в посл. час гроза 8/5 600 м
[Cu med, cong Ac cuf Ci sp]
+14.9 +13.0 88 +15 +16 1006.1 975.5
17 20.05 ЮЗ 4 40 км 8/1 600 м
[Sc diur, vesp As op Cs]
+14.7 +12.8 88 +13 +14 1006.1 975.5
18 20.05 ЮЗ 2 40 км {гроза, дождь} 4/1 600 м
[Sc diur, vesp Ac cuf Ci sp]
+15.1 +12.4 84 +15 +15 1006.4 975.8 +20.7 1
19 20.05 ЮЗ 2 30 км 3/1 600 м
[Sc diur, vesp Ci sp]
+13.9 +11.3 84 +13 +13 1006.6 975.9
20 20.05 ЮЗ 3 30 км 1/0
[Ci sp]
+12.6 +9.7 82 +11 +11 1007.1 976.2
21 20.05 ЮЗ 3 30 км {дождь} 1/0
[Ci sp]
+12.2 +9.3 82 +11 +11 1007.3 976.4
00 21.05 Ю 3 30 км 1/0
[Ac trans Ci sp]
+10.4 +8.1 86 +8 +8 1007.5 976.4
03 21.05 ЮЗ 3 50 км 5/5 600 м
[Sc]
+10.7 +7.3 79 +9 +9 1007.2 976.1
04 21.05 ЮЗ 4 60 км 5/3 600 м
[Sc Ac cast Ci sp]
+11.5 +7.1 74 +9 +9 1007.3 976.3
05 21.05 ЮЗ 3 70 км 4/3 600 м
[Sc Ac cast]
+11.4 +7.4 76 +10 +11 1007.4 976.4
06 21.05 Ю 3 70 км 3/3 600 м
[Sc Ac trans]
+12.9 +8.1 73 +12 +14 1007.4 976.5 +10.4
07 21.05 ЮЗ 5 70 км 4/3 600 м
[Cu Sc Ac trans]
+15.1 +8.2 63 +14 +17 1007.4 976.8
08 21.05 ЮЗ 4 70 км 3/3 600 м
[Cu hum Ac trans]
+17.0 +10.1 64 +17 +22 1007.5 977.1
09 21.05 З 6 70 км 6/3 600 м
[Cu hum Ac trans]
+17.4 +9.7 61 +17 +20 1008.1 977.7
10 21.05 З 8 70 км 8/4 600 м
[Cu Sc Ac trans]
+17.2 +9.5 61 +16 +17 1008.2 977.8
11 21.05 ЮЗ 5 50 км 8/4 600 м
[Cu med, cong Ac cuf]
+18.0 +10.5 62 +18 +21 1008.4 978.1
12 21.05 З 7 50 км 9/5 600 м
[Cu med, cong Ac cuf]
+17.2 +9.9 62 +16 +17 1008.7 978.3
13 21.05 ЮЗ 7 40 км 8/3 300 м
[St Ac trans]
+17.8 +10.4 62 +17 +19 1009.1 978.7
14 21.05 ЮЗ 5 25 км слаб. морось 9/6 600 м
[Cu Sc Ac trans]
+15.4 +12.0 80 +14 +15 1009.7 979.1
15 21.05 ЮЗ 4 25 км 8/3 600 м
[Sc Ac cuf]
+15.3 +12.4 83 +14 +16 1009.7 979.1
16 21.05 ЮЗ 4 20 км 6/4 600 м
[Cu Sc Ac cuf]
+14.0 +11.8 87 +13 +14 1010.0 979.2
17 21.05 ЮЗ 4 20 км 4/3 600 м
[Cu Sc Ac trans]
+15.4 +12.0 80 +14 +15 1009.9 979.3
18 21.05 ЮЗ 4 20 км 8/1 600 м
[Sc Ac trans]
+13.4 +11.8 90 +12 +12 1010.2 979.3 0.1
19 21.05 ЮЗ 4 20 км 6/0
[Ac trans]
+12.9 +12.4 97 +11 +11 1010.3 979.4
20 21.05 ЮЗ 5 20 км 8/0
[Ac trans]
+13.2 +12.5 96 +11 +11 1010.5 979.6
21 21.05 ЮЗ 5 20 км 4/0
[Ac trans]
+12.5 +11.6 94 +10 +10 1010.7 979.7
00 22.05 ЮЗ 4 20 км 3/0
[Ac trans]
+11.7 +10.6 93 +9 +9 1011.1 980.0
03 22.05 ЮЗ 6 25 км 4/0
[Ac trans]
+11.4 +10.1 92 +8 +8 1011.0 979.9
04 22.05 ЮЗ 5 25 км 5/0
[Ac trans]
+11.4 +10.3 93 +9 +9 1011.2 980.1
05 22.05 ЮЗ 5 30 км 4/0
[Ac trans]
+12.0 +10.6 91 +9 +10 1011.3 980.2
06 22.05 ЮЗ 5 40 км 4/1 600 м
[Sc Ac trans]
+13.5 +10.9 84 +12 +13 1011.4 980.5 +11.3
07 22.05 З 7 50 км 3/3 600 м
[Sc Ac trans]
+15.8 +11.7 77 +14 +16 1011.2 980.6
08 22.05 З 5 50 км 6/4 600 м
[Sc Ac trans]
+16.7 +12.5 76 +16 +19 1011.6 981.0
09 22.05 З 6 50 км 8/5 600 м
[Cu Sc Ac trans]
+18.3 +13.2 72 +18 +20 1011.8 981.4
10 22.05 З 6 50 км 8/5 300 м
[Cu Sc Ac trans]
+19.7 +13.4 67 +21 +23 комфорт 1011.8 981.6
11 22.05 З 6 50 км 3/3 600 м
[Cu med, cong Ac trans Ci sp]
+21.2 +12.7 58 +23 +29 комфорт 1011.6 981.5
12 22.05 З 5 50 км 3/3 600 м
[Cu med, cong Ci sp]
+22.7 +13.8 57 +26 +32 жарко 1011.3 981.4
13 22.05 З 5 30 км 5/3 600 м
[Cu med, cong Ci sp]
+22.4 +12.7 54 +25 +30 комфорт 1011.3 981.3
14 22.05 С 4 15 км слаб. дождь {гроза} 9/4 600 м
[Sc As op]
+16.0 +13.2 83 +15 +17 1012.3 981.7
15 22.05 В 1 20 км в посл. час гроза {дождь} 8/3 600 м
[Cu med, cong Ac As Ci ing]
+17.6 +12.3 71 +19 +22 1012.3 981.8
16 22.05 В 2 30 км 5/3 600 м
[Sc diur, vesp Ac cuf Ci ing]
+19.4 +13.9 70 +21 +24 комфорт 1011.9 981.6
17 22.05 Ю 1 30 км в посл. час гроза 6/3 600 м
[Sc diur, vesp Ac cuf Ci ing]
+18.0 +15.0 83 +19 +20 1012.0 981.6
18 22.05 Ю 1 1500 м гроза, ливневой дождь 9/4 300 м
[Cb calv Ac As]
+16.4 +13.8 85 +17 +17 1013.2 982.6 +23.0 4
19 22.05 ЮЗ 3 5000 м гроза, ливневой дождь 10/10 300 м
[Cb calv]
+13.7 +13.3 97 +12 +12 1014.2 983.3
20 22.05 ЮЗ 2 10 км в посл. час гроза {дождь} 10/5 600 м
[Sc As op]
+13.2 +12.7 97 +12 +12 1014.6 983.6
21 22.05 ЮЗ 3 20 км {гроза, ливн. осадки} 3/0
[Ac trans Ci sp]
+12.8 +12.3 97 +11 +11 1014.9 983.8
00 23.05 ЮЗ 2 30 км {гроза} 3/3 600 м
[Sc Ci sp]
+12.3 +11.9 97 +11 +11 1015.1 984.0 5
03 23.05 ЮЗ 3 20 км 8/4 600 м
[Sc Ac trans]
+12.1 +11.5 96 +10 +10 1015.5 984.3
04 23.05 ЮЗ 3 10 км 8/5 300 м
[Sc Ac trans]
+12.2 +11.8 97 +10 +11 1015.7 984.5
05 23.05 ЮЗ 2 15 км 10/4 300 м
[Sc As trans]
+12.6 +12.4 99 +12 +12 1015.7 984.6
06 23.05 В 1 12 км 10/4 600 м
[Sc As op]
+13.7 +13.5 99 +14 +14 1016.1 985.1 +12.0 5
07 23.05 СЗ 1 20 км слаб. дождь 10/4 600 м
[Sc As op]
+14.2 +13.0 92 +14 +16 1016.5 985.5
08 23.05 З 1 40 км слаб. дождь 10/4 600 м
[Sc As trans]
+16.2 +12.7 80 +17 +20 1016.3 985.6
09 23.05 З 2 40 км {дождь} 8/3 600 м
[Cu Sc Ac As Ci sp]
+17.7 +13.3 75 +18 +25 1016.1 985.5

 

Местоположение метеостанции Било-Гора (Хорватия): широта 45.88 долгота 17.20 высота над уровнем моря 263 м.

В архиве по умолчанию представлена погода на Било-Горе за последнюю неделю. Архивные данные за месяц целиком и за предыдущие месяцы, начиная с января 2011 года, Вы можете получить, выбрав интересующий диапазон дат из раскрывающегося списка и нажав кнопку "Ввод!".


*Определитесь, кто Вы:
робот инопланетянин человек

Внимание! Время в таблицах - всемирное. Для получения местного времени необходимо прибавить поправку, которая равна 1 ч.

Смотрите также архив погоды в соседних городах и на ближайших метеорологических станциях:

Погода в Даруваре (Хорватия) (31 км)
Погода в Бьеловаре (Хорватия) (32 км)
Погода в Крижевцах (Хорватия) (53 км)
Погода в Надьканиже (Венгрия) (66 км)
Погода в Капошваре (Венгрия) (74 км)
Погода в Сисаке (Хорватия) (77 км)
Погода в Вараздине (Хорватия) (79 км)
Погода в Пече (Венгрия) (81 км)
Погода в Шармеллеке (Венгрия) (89 км)
Погода в Загреб аэропорту (Хорватия) (89 км)

Пояснения к столбцам:

Ветер - указаны скорость ветра в м/с - средняя за 10 мин, порывы в срок и между сроками (в фигурных скобках) и направление, откуда дует ветер: С - северный, СВ - северо-восточный, В - восточный, ЮВ - юго-восточный, Ю - южный, ЮЗ - юго-западный, З - западный, СЗ - северо-западный.
Видимость - горизонтальная дальность видимости в метрах или километрах. При видимости от 1 до 10 км при отсутствии осадков обычно наблюдается дымка, при ухудшении видимости до 1 км и менее - туман. В сухую погоду видимость может ухудшаться дымом, пылью или мглою.
Явления - указаны атмосферные явления, наблюдавшиеся в срок или в последний час перед сроком; фигурными скобками обозначены явления, наблюдавшиеся между сроками (за 1-3 часа до срока); квадратными скобками обозначены град или гололедные отложения с указанием их диаметра в мм.
Облачность - указаны через наклонную черту общая и нижняя облачность в баллах и высота нижней границы облаков в метрах; квадратными скобками обозначены формы облаков: Ci - перистые, Cs - перисто-слоистые, Cc - перисто-кучевые, Ac - высококучевые, As - высокослоистые, Sc - слоисто-кучевые, Ns - слоисто-дождевые, Cu - кучевые, Cb - кучево-дождевые. Подробнее классификацию облаков см. в Атласе облаков (PDF).
T - Температура воздуха - температура, измеренная на высоте 2 м над землей.
Td - Температура точки росы - температура, при понижении до которой содержащийся в воздухе водяной пар достигнет насыщения.
f - Относительная влажность воздуха - влажноcть воздуха, измеренная на высоте 2 м над землей.
Te - Эффективная температура - температура, которую ощущает одетый по сезону человек в тени. Характеристика душности погоды. При расчете учитывается влияние влажности воздуха и скорости ветра на теплоощущения человека.
Tes - Эффективная температура на солнце - температура, которую ощущает человек, с поправкой на солнечный нагрев. Характеристика знойности погоды. Зависит от высоты солнца над горизонтом, облачности и скорости ветра. Ночью, в пасмурную погоду, а также при ветре 12 м/с и более поправка равна нулю.
P - Атмосферное давление - приведенное к уровню моря атмосферное давление.
Po - Атмосферное давление - измеренное на уровне метеостанции атмосферное давление.
Tmin - Минимальная температура - минимум температуры воздуха на высоте 2 м над землей.
Tmax - Максимальная температура - максимум температуры воздуха на высоте 2 м над землей.
R - Количество осадков - Количество выпавших осадков за период времени, мм. При наведении курсора мыши на число - период времени, за который выпало указанное количество осадков.
R24 - Количество осадков - Количество выпавших осадков за 24 часа, мм.
S - Снежный покров - Высота снежного покрова, см. При наведении курсора мыши на число - состояние снежного покрова и степень покрытия местности в баллах.